Time,TemperatureF,DewpointF,PressureIn,WindDirection,WindDirectionDegrees,WindSpeedMPH,WindSpeedGustMPH,Humidity,HourlyPrecipIn,Conditions,Clouds,dailyrainin,SoftwareType,DateUTC
2013-03-21 00:00:00,43.0,-99.9,29.92,WNW,300,16.0,20.0,-999,-99.99,,,-99.99,,2013-03-21 07:00:00,
2013-03-21 00:53:00,43.0,-99.9,29.92,WNW,300,16.0,20.0,-999,-99.99,,,-99.99,,2013-03-21 07:53:00,
2013-03-21 01:00:00,43.0,-99.9,29.96,WNW,300,13.0,18.0,-999,-99.99,,,-99.99,,2013-03-21 08:00:00,
2013-03-21 01:52:00,43.0,-99.9,29.96,WNW,300,13.0,18.0,-999,-99.99,,,-99.99,,2013-03-21 08:52:00,
2013-03-21 02:00:00,43.0,-99.9,29.98,West,280,13.0,18.0,-999,-99.99,,,-99.99,,2013-03-21 09:00:00,
2013-03-21 02:53:00,43.0,-99.9,29.98,West,280,13.0,18.0,-999,-99.99,,,-99.99,,2013-03-21 09:53:00,
2013-03-21 03:00:00,42.0,-99.9,30.01,West,280,16.0,18.0,-999,-99.99,,,-99.99,,2013-03-21 10:00:00,
2013-03-21 03:53:00,42.0,-99.9,30.01,West,280,16.0,18.0,-999,-99.99,,,-99.99,,2013-03-21 10:53:00,
2013-03-21 04:00:00,42.0,-99.9,30.02,West,280,13.0,18.0,-999,-99.99,,,-99.99,,2013-03-21 11:00:00,
2013-03-21 04:53:00,42.0,-99.9,30.02,West,280,13.0,18.0,-999,-99.99,,,-99.99,,2013-03-21 11:53:00,
2013-03-21 05:00:00,42.0,-99.9,30.03,West,280,13.0,16.0,-999,-99.99,,,-99.99,,2013-03-21 12:00:00,
2013-03-21 05:53:00,42.0,-99.9,30.03,West,280,13.0,16.0,-999,-99.99,,,-99.99,,2013-03-21 12:53:00,
2013-03-21 06:00:00,41.0,-99.9,30.05,NNW,340,4.0,7.0,-999,-99.99,,,-99.99,,2013-03-21 13:00:00,
2013-03-21 06:53:00,41.0,-99.9,30.05,NNW,340,4.0,7.0,-999,-99.99,,,-99.99,,2013-03-21 13:53:00,
2013-03-21 07:00:00,41.0,-99.9,30.07,NW,320,4.0,9.0,-999,-99.99,,,-99.99,,2013-03-21 14:00:00,
2013-03-21 07:52:00,41.0,-99.9,30.07,NW,320,4.0,9.0,-999,-99.99,,,-99.99,,2013-03-21 14:52:00,
2013-03-21 08:00:00,40.0,-99.9,30.09,NNE,30,4.0,7.0,-999,-99.99,,,-99.99,,2013-03-21 15:00:00,
2013-03-21 08:53:00,40.0,-99.9,30.09,NNE,30,4.0,7.0,-999,-99.99,,,-99.99,,2013-03-21 15:53:00,
2013-03-21 09:00:00,41.0,-99.9,30.11,North,350,2.0,4.0,-999,-99.99,,,-99.99,,2013-03-21 16:00:00,
2013-03-21 09:53:00,41.0,-99.9,30.11,North,350,2.0,4.0,-999,-99.99,,,-99.99,,2013-03-21 16:53:00,
2013-03-21 10:00:00,42.0,-99.9,30.12,West,270,4.0,4.0,-999,-99.99,,,-99.99,,2013-03-21 17:00:00,
2013-03-21 10:53:00,42.0,-99.9,30.12,West,270,4.0,4.0,-999,-99.99,,,-99.99,,2013-03-21 17:53:00,
2013-03-21 11:00:00,42.0,-99.9,30.13,West,260,7.0,9.0,-999,-99.99,,,-99.99,,2013-03-21 18:00:00,
2013-03-21 11:52:00,42.0,-99.9,30.13,West,260,7.0,9.0,-999,-99.99,,,-99.99,,2013-03-21 18:52:00,
2013-03-21 12:00:00,42.0,-99.9,30.13,WNW,290,4.0,7.0,-999,-99.99,,,-99.99,,2013-03-21 19:00:00,
2013-03-21 12:53:00,42.0,-99.9,30.13,WNW,290,4.0,7.0,-999,-99.99,,,-99.99,,2013-03-21 19:53:00,
2013-03-21 13:00:00,43.0,-99.9,30.13,West,260,4.0,7.0,-999,-99.99,,,-99.99,,2013-03-21 20:00:00,
2013-03-21 13:53:00,43.0,-99.9,30.13,West,260,4.0,7.0,-999,-99.99,,,-99.99,,2013-03-21 20:53:00,
2013-03-21 14:00:00,44.0,-99.9,30.11,West,260,2.0,4.0,-999,-99.99,,,-99.99,,2013-03-21 21:00:00,
2013-03-21 14:53:00,44.0,-99.9,30.11,West,260,2.0,4.0,-999,-99.99,,,-99.99,,2013-03-21 21:53:00,
2013-03-21 15:00:00,45.0,-99.9,30.11,South,190,2.0,4.0,-999,-99.99,,,-99.99,,2013-03-21 22:00:00,
2013-03-21 15:53:00,45.0,-99.9,30.11,South,190,2.0,4.0,-999,-99.99,,,-99.99,,2013-03-21 22:53:00,
2013-03-21 16:00:00,45.0,-99.9,30.11,East,90,0.0,2.0,-999,-99.99,,,-99.99,,2013-03-21 23:00:00,
2013-03-21 16:53:00,45.0,-99.9,30.11,East,90,0.0,2.0,-999,-99.99,,,-99.99,,2013-03-21 23:53:00,
2013-03-21 17:00:00,45.0,-99.9,30.11,South,180,4.0,4.0,-999,-99.99,,,-99.99,,2013-03-22 00:00:00,
2013-03-21 17:53:00,45.0,-99.9,30.11,South,180,4.0,4.0,-999,-99.99,,,-99.99,,2013-03-22 00:53:00,
2013-03-21 18:00:00,43.0,-99.9,30.12,WSW,240,11.0,13.0,-999,-99.99,,,-99.99,,2013-03-22 01:00:00,
2013-03-21 18:53:00,43.0,-99.9,30.12,WSW,240,11.0,13.0,-999,-99.99,,,-99.99,,2013-03-22 01:53:00,
2013-03-21 19:00:00,42.0,-99.9,30.14,West,260,20.0,25.0,-999,-99.99,,,-99.99,,2013-03-22 02:00:00,
2013-03-21 19:53:00,42.0,-99.9,30.14,West,260,20.0,25.0,-999,-99.99,,,-99.99,,2013-03-22 02:53:00,
2013-03-21 20:00:00,42.0,-99.9,30.16,NW,310,18.0,22.0,-999,-99.99,,,-99.99,,2013-03-22 03:00:00,
2013-03-21 20:53:00,42.0,-99.9,30.16,NW,310,18.0,22.0,-999,-99.99,,,-99.99,,2013-03-22 03:53:00,
2013-03-21 21:00:00,40.0,-99.9,30.17,West,270,22.0,27.0,-999,-99.99,,,-99.99,,2013-03-22 04:00:00,
2013-03-21 21:53:00,40.0,-99.9,30.17,West,270,22.0,27.0,-999,-99.99,,,-99.99,,2013-03-22 04:53:00,
2013-03-21 22:00:00,41.0,-99.9,30.18,West,280,20.0,25.0,-999,-99.99,,,-99.99,,2013-03-22 05:00:00,
2013-03-21 22:52:00,41.0,-99.9,30.18,West,280,20.0,25.0,-999,-99.99,,,-99.99,,2013-03-22 05:52:00,
2013-03-21 23:00:00,41.0,-99.9,30.18,WNW,300,25.0,29.0,-999,-99.99,,,-99.99,,2013-03-22 06:00:00,
2013-03-21 23:52:00,41.0,-99.9,30.18,WNW,300,25.0,29.0,-999,-99.99,,,-99.99,,2013-03-22 06:52:00,